Regional Weather Roundup
Issued by NWS

Home | Current Version | Previous Version | Text Only | Print | Product List | Glossary Off
Versions: 1 2 3 4 5 6 7 8 9 10 11 12 13 14 15 16 17 18 19 20 21 22 23 24 25 26 27 28 29 30 31 32 33 34 35 36 37 38 39 40 41 42 43 44 45 46 47 48 49 50

598
ASUS43 KMPX 300701
RWRMN
WEATHER ROUNDUP FOR MINNESOTA
NATIONAL WEATHER SERVICE TWIN CITIES/CHANHASSEN MN
200 AM CDT SAT APR 30 2016


NOTE: "FAIR" INDICATES FEW OR NO CLOUDS BELOW 12,000 FEET WITH NO
SIGNIFICANT WEATHER AND/OR OBSTRUCTIONS TO VISIBILITY. N/A MEANS
CURRENT SKY AND/OR WEATHER CONDITIONS ARE NOT AVAILABLE.

MNZ060>063-068>070-300800-
   Twin Cities Metro

CITY           SKY/WX    TMP DP  RH WIND       PRES   REMARKS
TWIN CITIES    CLOUDY    49  36  61 NE7       30.12F
ST PAUL        CLOUDY    48  34  58 N9        30.14R
CRYSTAL        CLOUDY    48  33  56 NE7       30.13R
BLAINE         CLOUDY    46  34  61 NE7       30.15R
EDEN PRAIRIE   CLOUDY    48  39  71 NE5       30.11S
SOUTH ST PAUL  CLOUDY    49  36  59 N6        30.12F
LAKE ELMO      MOCLDY    45  34  65 NE6       30.15R
$$
MNZ001>005-007-008-013>017-022>024-027-028-300800-
   Northwest Minnesota

CITY           SKY/WX    TMP DP  RH WIND       PRES   REMARKS
BEMIDJI        CLEAR     41  32  71 E7        30.21R
HALLOCK        CLEAR     43  30  61 E7        30.22R
ROSEAU         CLEAR     37  32  81 NE7       30.24R
WARROAD        CLEAR     37  34  87 E3        30.26R
THIEF RVR FALL CLEAR     43  28  56 NE12      30.22R
CROOKSTON      CLEAR     45  32  61 E10       30.20R
FOSSTON        CLEAR     43  30  61 E7        30.20R
DETROIT LAKES  CLEAR     46  32  57 SE12      30.18R
MOORHEAD       CLEAR     46  34  61 E10       30.15R
PARK RAPIDS    CLEAR     45  29  53 E8        30.18R
MAHNOMEN       FAIR      44  32  63 E8        30.17R
$$
MNZ006-009>011-018-025>026-300800-
   North Central Minnesota

CITY           SKY/WX    TMP DP  RH WIND       PRES   REMARKS
BAUDETTE       CLEAR     37  29  72 E6        30.25R
FLAG ISLAND    CLEAR     45  30  57 E6        30.25S
INTL FALLS     PTCLDY    33  29  85 CALM      30.26R
WASKISH        CLEAR     39  32  75 E5        30.23S
BIG FORK       CLEAR     37  30  75 CALM      30.23S
LONGVILLE      CLEAR     39  28  65 CALM      30.20S
GRAND RAPIDS   CLEAR     39  28  65 CALM      30.23R
CRANE LAKE     PTCLDY    27  25  93 CALM      30.28R
ORR            CLEAR     36  28  75 CALM      30.22S
COOK           CLEAR     30  28  93 CALM      30.24S
WALKER         FAIR      43  32  64 E7        30.20R
$$
MNZ012-019>021-037-300800-
   Northeast Minnesota

CITY           SKY/WX    TMP DP  RH WIND       PRES   REMARKS
DULUTH         CLEAR     36  28  73 E7        30.21R
ELY            CLEAR     37  30  75 NE5       30.25R
HIBBING        CLEAR     37  30  75 NE5       30.22R
EVELETH        CLEAR     36  30  80 NE5       30.23S
DULUTH HARBOR  CLEAR     37  36  93 NE6       30.24S
TWO HARBORS    CLEAR     36  30  80 CALM      30.21R
SILVER BAY     CLEAR     32  28  86 NE6       30.22R WCI  26
GRAND MARAIS     N/A     44  31  60 NE5       30.26R
G MARAIS ARPRT CLOUDY    37  25  60 N8        30.25R
$$
MNZ029>031-032-039>041-046>048-054>057-064-300800-
   West Central Minnesota

CITY           SKY/WX    TMP DP  RH WIND       PRES   REMARKS
FERGUS FALLS   CLEAR     46  34  61 E5        30.12S
WHEATON        CLEAR     46  39  76 NE9       30.14R
MORRIS         CLEAR     46  36  66 E12       30.11R
ALEXANDRIA     CLEAR     45  32  60 E12       30.15R
ELBOW LAKE     FAIR      47  34  61 SE9       30.13S
WADENA         CLEAR     41  30  65 E8        30.17S
GLENWOOD       CLEAR     41  34  75 E12       30.14R
APPLETON       CLEAR     41  36  81 E6        30.11R
BENSON         CLEAR     45  34  65 E7        30.12R
ORTONVILLE     CLEAR     41  37  87 NE5       30.11R
MADISON        CLEAR     39  37  93 NE9       30.10R
WILLMAR        FAIR      46  36  66 E10       30.13R
$$
MNZ033>034-036-042>043-049>051-058-059-300800-
   Central Minnesota

CITY           SKY/WX    TMP DP  RH WIND       PRES   REMARKS
ST CLOUD       CLEAR     44  31  60 E6        30.16R
SAUK CENTRE    FAIR      42  32  68 E10       30.15R
PAYNESVILLE    CLEAR     46  32  59 E9G17     30.14R
AITKIN         CLEAR     39  28  65 CALM      30.19R
PINE RIVER     CLEAR     39  30  70 E6        30.23R
BRAINERD       CLEAR     41  29  62 E6        30.19R
STAPLES        CLEAR     43  30  61 E5        30.18R
LONG PRAIRIE   FAIR      43  32  65 NE12      30.15S
LITTLE FALLS   CLEAR     43  30  61 E6        30.17S
LITCHFIELD     CLEAR     46  37  71 E9        30.14R
BUFFALO        CLEAR     45  33  63 NE7       30.16R
MAPLE LAKE     CLEAR     46  36  68 NE8       30.16R
HUTCHINSON     MOCLDY    46  40  80 NE7       30.13S
$$
MNZ037-044-045-052-053-300800-
   East Central Minnesota

CITY           SKY/WX    TMP DP  RH WIND       PRES   REMARKS
PRINCETON      CLEAR     45  30  57 NE6       30.17R
MORA           CLEAR     37  30  75 NE5       30.20R
CAMBRIDGE      CLEAR     45  30  57 NE6       30.15R
RUSH CITY      CLEAR     40  30  66 NE7       30.18R
MOOSE LAKE     CLEAR     36  30  80 NE5       30.19R
HINCKLEY       FAIR      36  32  87 N5        30.18S
CLOQUET        PTCLDY    34  27  75 NE7       30.20S WCI  28
MCGREGOR       CLEAR     37  32  81 NE3       30.21R
$$
MNZ071>073-080-081-089-090-097-098-300800-
   Southwest Minnesota

CITY           SKY/WX    TMP DP  RH WIND       PRES   REMARKS
MONTEVIDEO     PTCLDY    41  37  87 SE9       30.12S
GRANITE FALLS  PTCLDY    45  38  79 E6        30.11F
CANBY          CLEAR     40  39  97 CALM      30.11R
MARSHALL       CLEAR     41  38  89 CALM      30.09S
REDWOOD FALLS  PTCLDY    41  37  86 N6        30.10R
OLIVIA         PTCLDY    41  34  75 CALM      30.10S
PIPESTONE      CLOUDY    43  39  87 E6        30.05F
WINDOM         CLOUDY    41  37  87 CALM      30.06F
WORTHINGTON    CLOUDY    40  38  93 NE10      30.04F
JACKSON        CLOUDY    43  37  81 E9        30.05F
TRACY          CLEAR     41  39  92 CALM      30.08F
SLAYTON        PTCLDY    41  39  93 E6        30.06F
$$
MNZ065>067-074>077-082>085-091>093-300800-
   South Central Minnesota

CITY           SKY/WX    TMP DP  RH WIND       PRES   REMARKS
MANKATO        CLOUDY    46  37  71 NE7       30.08F
NEW ULM        CLOUDY    43  39  87 CALM      30.09F
ST JAMES       CLOUDY    37  36  93 NE6       30.08F
FAIRMONT       CLOUDY    43  30  61 E7        30.05F
GLENCOE        CLOUDY    44  41  90 CALM      30.11F
FARIBAULT      CLOUDY    39  37  93 N3        30.11F
OWATONNA       CLOUDY    43  37  81 NE6       30.08F
WASECA         PTCLDY    41  36  81 NE6       30.09F
ALBERT LEA     CLOUDY    43  39  87 NE5       30.07F
$$
MNZ078>079-086>088-094>096-300800-
   Southeast Minnesota

CITY           SKY/WX    TMP DP  RH WIND       PRES   REMARKS
ROCHESTER      CLOUDY    41  38  89 NE6       30.09F
RED WING       CLOUDY    43  37  81 CALM      30.11F
STANTON        CLOUDY    40  38  90 CALM      30.10F
DODGE CENTER   CLOUDY    39  37  93 NE6       30.08F
WINONA         CLOUDY    41  37  87 CALM      30.12S
AUSTIN         CLOUDY    41  37  87 NE5       30.07F
PRESTON        CLOUDY    40  37  89 NE5       30.08F
$$
ABBREVIATIONS USED IN REMARKS
   TC - TEMPERATURES IN CELSIUS
  WCI - WIND CHILL INDEX
   HX - HEAT INDEX
  VSB - VISIBILITY
$$




USA.gov is the U.S. government's official web portal to all federal, state and local government web resources and services.